TimeMST,TemperatureF,Dew PointF,Humidity,Sea Level PressureIn,VisibilityMPH,Wind Direction,Wind SpeedMPH,Gust SpeedMPH,PrecipitationIn,Events,Conditions,WindDirDegrees,DateUTC
12:53 AM,43.0,34.0,71,30.15,10.0,WSW,9.2,-,N/A,,Clear,240,2012-11-06 07:53:00
1:53 AM,43.0,34.0,71,30.15,10.0,SW,5.8,-,N/A,,Clear,220,2012-11-06 08:53:00
2:53 AM,46.9,34.0,61,30.15,10.0,West,3.5,-,N/A,,Clear,260,2012-11-06 09:53:00
3:53 AM,46.0,35.1,66,30.16,10.0,WSW,4.6,-,N/A,,Mostly Cloudy,240,2012-11-06 10:53:00
4:53 AM,45.0,34.0,65,30.17,10.0,SW,6.9,-,N/A,,Partly Cloudy,220,2012-11-06 11:53:00
5:53 AM,45.0,35.1,68,30.16,10.0,SW,6.9,-,N/A,,Clear,230,2012-11-06 12:53:00
6:53 AM,43.0,34.0,71,30.19,10.0,ENE,6.9,-,N/A,,Clear,70,2012-11-06 13:53:00
7:53 AM,46.9,34.0,61,30.19,10.0,East,5.8,-,N/A,,Partly Cloudy,80,2012-11-06 14:53:00
8:53 AM,48.9,35.1,59,30.16,10.0,SE,6.9,-,N/A,,Clear,130,2012-11-06 15:53:00
9:53 AM,51.1,37.0,59,30.14,10.0,SE,4.6,-,N/A,,Clear,130,2012-11-06 16:53:00
10:53 AM,55.0,37.9,53,30.11,10.0,SW,9.2,-,N/A,,Clear,220,2012-11-06 17:53:00
11:53 AM,57.0,37.0,47,30.09,10.0,SSW,8.1,-,N/A,,Clear,210,2012-11-06 18:53:00
12:53 PM,59.0,36.0,42,30.06,10.0,SSW,10.4,-,N/A,,Clear,200,2012-11-06 19:53:00
1:53 PM,62.1,33.1,34,30.01,10.0,SSW,12.7,-,N/A,,Clear,210,2012-11-06 20:53:00
2:53 PM,63.0,33.1,33,29.98,10.0,SSW,12.7,-,N/A,,Clear,200,2012-11-06 21:53:00
3:53 PM,64.0,33.1,31,29.95,10.0,SW,17.3,-,N/A,,Clear,220,2012-11-06 22:53:00
4:53 PM,62.1,33.1,34,29.94,10.0,SW,13.8,-,N/A,,Clear,220,2012-11-06 23:53:00
5:53 PM,57.0,34.0,42,29.94,10.0,South,10.4,-,N/A,,Clear,190,2012-11-07 00:53:00
6:53 PM,57.0,34.0,42,29.93,10.0,SSW,16.1,-,N/A,,Clear,200,2012-11-07 01:53:00
7:53 PM,55.9,34.0,44,29.91,10.0,South,10.4,-,N/A,,Clear,180,2012-11-07 02:53:00
8:53 PM,55.9,34.0,44,29.88,10.0,SSW,10.4,-,N/A,,Clear,200,2012-11-07 03:53:00
9:53 PM,55.9,34.0,44,29.85,10.0,SSW,13.8,-,N/A,,Clear,200,2012-11-07 04:53:00
10:53 PM,55.9,35.1,45,29.81,10.0,South,13.8,-,N/A,,Clear,190,2012-11-07 05:53:00
11:53 PM,55.0,35.1,47,29.79,10.0,SSW,15.0,-,N/A,,Clear,200,2012-11-07 06:53:00